カタログに戻る

STARLINK-34210

運用中通信SSO
NORAD 65653·PAYLOAD·🇺🇸 United States

打ち上げ Sep 19, 2025 から Vandenberg Space Force Base

Loading…

次のパス (今後24時間)

TLE

最新Source: CelesTrak SupGP

元期: Sep 14, 2026, 21:11 UTC

1 65653C 25211B   26257.88312500  .00009632  00000+0  29907-3 0  2571
2 65653  97.2832 298.1875 0001110  97.6741 208.5804 15.33428107    17

AllMySatでSTARLINK-34210をリアルタイム追跡

Download on the App Store